Location: Hastringsfeld
(50.9620°N, 10.4787°E)
Time: 11:32:50
(UTC+00:00)

MSX - Pass Details

Date: 26 September 2023
Orbit: 895 x 905 km, 98.9° (Epoch: 28 November)

Event Time Altitude Azimuth Distance (km) Brightness Sun altitude
Rises 01:49:23 0° 14° (NNE) 3,524 7.7 -29.8°
Reaches altitude 10° 01:51:48 10° 12° (NNE) 2,580 6.8 -29.6°
Enters shadow 01:57:03 69° 327° (NNW) 962 3.9 -28.9°
